AQI (26)

Current Conditions for Foresthill, CA. Clear skies, Dry   
Visibility: 10 miles
Space WX Alerts: CONTINUED ALERT:  Electron 2MeV Integral Flux exceeded 1000pfu ( Latest Alert ) - Issue Time: 2020 Nov 28 1247 UTC

  Summary / Temperature 

Current Temperature
43.5°F
6.4°C
(24/hr Ago)
41.5°F
(Apparent temp)
38.9°F
Cool
Wind Chill Graphs
43.5°F 
Wind Chill-Avg
43.6°F 6.4°C
 --- Virtual Temp: 44.6°F ---

 Temp Rate:

 24/hr Difference:

 Avg Running Temp:

 Todays High:

 Todays Low:

 Y-days High:

 Y-days Low:

 Todays WChill:

 Y-days WChill:

 Evapotranspiration:

-0.2°F/hr 

+2°F

43.7°F

44.1°F 12:00am

43.5°F 12:48am

58.7°F 1:43pm

40.2°F 4:41am

40.6°F 12:50am

31.2°F 6:36am

0.005 in

115' Above Ground

 Temperature:

 6'AGL VRS 115'AGL:

 Avg Running Temp:

 Humidity:

 Todays High:

 Todays Low:

 Y-days High:

 Y-days Low:

53.0°F 

+9.5°F

53.0°F

0% 

53.0°F 12:00am

53.0°F 12:00am

62.0°F 11:24am

50.0°F 9:20am

Temp & Humidity Graphs

  Wind 

Wind Speed

 1.0 mph

Gusting to

 4.0 mph

Wind from ENE

78°  ENE

Light air

 Avg speed:

 Wind Run:

 Peak Gust:

  1.0 mph 

2.0 miles

  5.0 mph 12:50am

  Almanac  

Moon age: 13 days,21 hours,31 minutes,99%

Full moon
99%
Illuminated
13 days in cycle

 Moonrise:

 Moonset:

 Sunrise:

 Sunset:

 Solar Noon:

4:28pm

6:16am

7:01am

4:41pm

11:52am

1min 21s less daylight tomorrow 

  Solar Radiation 

(Current Solar)
  No Sun Light
(Todays High)
 None@12:00am

Rain

 Rain Today:

 Rain Rate (/hr):

 Rain last hour:

 Rain Yesterday:

 This Month:

 Season Total:

9 Days Since Last Rain Day

0.00 in

0.000 in

0.00 in

0.00 in

4.04 in

4.05 in

Updated Time

Updated: 11/29/20  2:27am

(Updated  sec ago)

Humidity & Barometer

 Humidity:

 Wetbulb:

 Dew Point:

 Barometer:

56% 

38.1°F 

28.8°F 

30.247 inHg 

 Baro Trend:  Steady 
Northern Calif
Preparedness
Fire 
Level 

    UV Index  

(Current UV)
0.0  None
(Todays High) @ 12:00am
0.0   None

National Weather Service Forecast

Overnight

Overnight: Mostly Clear
Mostly Clear
Sunday

Sunday: Sunny
Sunny
Sunday
Night
Sunday Night: Mostly Clear
Mostly Clear
Monday

Monday: Sunny
Sunny
Monday
Night
Monday Night: Mostly Clear
Mostly Clear
Tuesday

Tuesday: Sunny
Sunny
Lo 40 °F ↑ Hi 61 °F ↓ Lo 45 °F ↑ Hi 60 °F Lo 43 °F Hi 60 °F

Foresthill Probe 2 Stats  
Foresthill Probe 2: is located on Thomas Street
at 3000 feet. The main Foresthill Weather site
is located on Melody ln at the 2860 foot elevation

Calm
41.1°F
5.1°C
Temp Rate:
-0.3°F
Calm
Gusting to
None
(Humidity)
63%
Calm
123°  
Updated: 29/11/20 - 02:27:50
 Todays High: 42.4°F 00:00
 Todays Low: 41.1°F 02:23
 Rain Today: 0.00 in
 Season Total: 4.59 in

Foresthill Wx: Monthly,Yearly, Highs and Lows 

Foresthill  
This Weather Data is coming from the main Foresthill
Weather site located on Melody ln at the 2860 foot
elevation
Not Foresthill Probe 2
Weather Data
Month
  High
Month
  Low
Year
High
Year
Low
Temp 82.3°F
11/2/20
30.9°F
11/9/20
101.8°F
8/15/20
28.3°F
2/3/20
Humidity 100%
11/19/20
10%
11/4/20
100%
1/8/20
6%
9/8/20
Heat Index 79.9°F
11/2/20
33.9°F
11/9/20
101.7°F
8/17/20
28.2°F
2/4/20
Wind Chill 82.3°F
11/2/20
19.3°F
11/9/20
101.8°F
8/15/20
14.7°F
2/3/20
Wind Gust 31 mph
11/13/20
0 mph
11/1/20
46 mph
2/9/20
0 mph
1/1/20
Barometer 30.40 in
11/15/20
29.65 in
11/6/20
30.59 in
1/5/20
29.57 in
6/28/20
ET 0.13 in
11/1/20
0.00 in
11/1/20
0.31 in
6/27/20
0.00 in
1/1/20
Dew Point 47.5°F
11/14/20
14.1°F
11/26/20
67.5°F
6/26/20
-2.6°F
2/3/20
Visible Satellite Pacific Satellite US Radar Satellite Imagery Sacramento,CA.  (click to enlarge)
NWS Weather Forecast - Summary
Updated: Saturday, November 28, 2020 - 2:01pm PST
NWS Weather Forecast: Overnight and Sunday (Updated: Sun, 29-Nov-2020 2:03am PST)
Overnight

Overnight: Mostly Clear
Mostly Clear

Lo 40 °F ↑
NWS forecast: Mostly clear. Low around 40, with temperatures rising to around 42 overnight. East wind around 6 mph.
Sunday

Sunday: Sunny
Sunny

Hi 61 °F ↓
NWS forecast: Sunny. High near 61, with temperatures falling to around 48 in the afternoon. South southeast wind 2 to 7 mph.
YR.NO 10 Day Weather forecast
Last update: 11/28/2020 @ 17:24
Next update: 11/28/2020 @ 23:27
Provided by: 22
      Temperature Precipitation Pressure Wind  
Today
11/29/2020
00:00 06:00 32°F   30.19 inHg Light breeze from east-northeast 7 mph
  06:00 12:00 32°F   30.19 inHg Light breeze from east 7 mph
  12:00 18:00 57°F   30.17 inHg Light breeze from west-southwest 4 mph
  18:00 00:00 46°F   30.17 inHg Light air from east 2 mph
    (Click to enlarge)
meteogram

    Forecast for next 9 days

      Temperature Precip Pressure Wind  
Monday
11/30/2020
00:00 06:00 36°F   30.21 inHg Light breeze from east 6 mph
  06:00 12:00 28°F   30.25 inHg Light breeze from east 4 mph
  12:00 18:00 59°F   30.22 inHg Light breeze from west-southwest 4 mph
  18:00 00:00 45°F   30.22 inHg Light air from east 2 mph
      Temperature Precip Pressure Wind  
Tuesday
12/01/2020
00:00 06:00 32°F   30.21 inHg Light breeze from east-northeast 5 mph
  04:00 10:00 30°F   30.17 inHg Gentle breeze from east-northeast 8 mph
  10:00 16:00 55°F   30.17 inHg Light air from east 3 mph
  16:00 22:00 52°F   30.10 inHg Light air from north-northwest 2 mph
  22:00 04:00 39°F   30.16 inHg Light breeze from east-northeast 7 mph
      Temperature Precip Pressure Wind  
Wednesday
12/02/2020
04:00 10:00 37°F   30.16 inHg Gentle breeze from east-northeast 8 mph
  10:00 16:00 57°F   30.19 inHg Light breeze from east-northeast 4 mph
  16:00 22:00 54°F   30.10 inHg Light air from west 2 mph
  22:00 04:00 39°F   30.08 inHg Gentle breeze from east-northeast 8 mph
      Temperature Precip Pressure Wind  
Thursday
12/03/2020
04:00 10:00 39°F   30.08 inHg Light breeze from east-northeast 7 mph
  10:00 16:00 55°F   30.13 inHg Light air from east 2 mph
  16:00 22:00 54°F   30.15 inHg Light air from north-northeast 1 mph
  22:00 04:00 37°F   30.27 inHg Gentle breeze from east-northeast 8 mph
      Temperature Precip Pressure Wind  
Friday
12/04/2020
04:00 10:00 36°F   30.30 inHg Gentle breeze from east-northeast 8 mph
  10:00 16:00 54°F   30.36 inHg Light air from east-northeast 3 mph
  16:00 22:00 54°F   30.30 inHg Light air from west-southwest 2 mph
  22:00 04:00 36°F   30.30 inHg Light breeze from east-northeast 7 mph
      Temperature Precip Pressure Wind  
Saturday
12/05/2020
04:00 10:00 30°F   30.26 inHg Light breeze from east-northeast 7 mph
  10:00 16:00 54°F   30.26 inHg Light air from east-southeast 2 mph
  16:00 22:00 52°F   30.20 inHg Calm from west 0 mph
  22:00 04:00 32°F   30.22 inHg Light breeze from east-northeast 7 mph
      Temperature Precip Pressure Wind  
Sunday
12/06/2020
04:00 10:00 28°F   30.21 inHg Light breeze from east-northeast 6 mph
  10:00 16:00 54°F   30.24 inHg Light air from east-southeast 2 mph
  16:00 22:00 52°F   30.19 inHg Light air from east 1 mph
  22:00 04:00 34°F   30.23 inHg Light breeze from east 4 mph
      Temperature Precip Pressure Wind  
Monday
12/07/2020
04:00 10:00 30°F   30.22 inHg Light breeze from east 6 mph
  10:00 16:00 55°F   30.21 inHg Light air from east 2 mph
  16:00 22:00 55°F   30.13 inHg Light air from west-northwest 1 mph
How Close Are We To this Month's Temperature Record ?
Updated Sunday, Nov 29, 2020- 2:25:01 AM

Current Temperature: 43.5°F

November's High: Temperature Record 82.3°F - Set on Mon, Nov 2, 2020 - 12:23:23 PM
We are currently 38.8°F Less than this Month's record High

November's Low: Temperature Record 28.9°F - Set on Thu, Nov 26, 2015 - 6:22:00 AM
We are currently 14.6°F More than this Month's record Low

Weather History For Sunday, November 29, 2020


On this Day - In Weather History ...
Data courtesy of weatherforyou.com
powered by Cumulus v1.9.3 (1059)
Ambient Weather VWS v14.00
Top Website Map Copyright © 2007 - 2020 Foresthillweather.com Never base important decisions on this or any weather information obtained from the Internet